Simultaneous Nadir Overpasses (SNOs) Predictions

Prediction of SNOs between GOES-16 and METOP-C Satellite Orbit:

Table of predicted SNOs for the next 14.0 days since TLE Epoch: 2/11/2023
Index Date Time (GOES-16) GOES-16 Lat,Lon METOP-C Lat,Lon Distance(km) Time Diff (sec)
1 02/12/2023 02:43:20 -0.03, -75.19 -0.60, -77.76 293.01 80
2 02/13/2023 02:20:01 -0.02, -75.19 0.50, -72.76 276.34 80
3 02/14/2023 14:41:32 0.02, -75.22 0.51, -77.32 240.54 80
4 02/15/2023 14:18:14 0.02, -75.22 -0.65, -72.34 328.90 80
5 02/17/2023 02:39:55 -0.02, -75.21 -0.38, -76.94 196.15 80
6 02/18/2023 02:16:35 -0.03, -75.22 0.72, -71.94 373.68 80
7 02/19/2023 14:35:26 0.03, -75.25 0.33, -76.49 142.44 80
8 02/20/2023 14:17:27 0.03, -75.26 -0.84, -71.51 427.97 80
9 02/22/2023 02:36:28 -0.03, -75.26 -0.22, -76.10 95.33 80
10 02/23/2023 02:13:08 -0.03, -75.28 0.90, -71.11 475.63 80
11 02/24/2023 14:31:59 0.03, -75.32 0.09, -75.67 38.98 80
